Location: Dannhausen
(51.8650°N, 10.1026°E)
Time: 23:14:24
(UTC+00:00)

ADEOS Rocket - Pass Details

Date: 09 April 2020
Orbit: 858 x 1307 km, 98.7° (Epoch: 29 May)

Event Time Altitude Azimuth Distance (km) Brightness Sun altitude
Rises 18:58:37 0° 12° (NNE) 3,919 6.3 -8.3°
Reaches altitude 10° 19:01:23 10° 7° (N) 2,891 5.7 -8.6°
Maximum altitude 19:07:25 44° 298° (WNW) 1,341 4.4 -9.5°
Drops below altitude 10° 19:12:53 10° 228° (SW) 2,617 5.5 -10.2°
Sets 19:15:18 0° 222° (SW) 3,513 6.1 -10.6°
